{"data":{"norad_id":55621,"intl_designator":"2023-020BE","name":"STARLINK-5709","alt_names":[],"object_type":"PAYLOAD","status":"ACTIVE","operator":null,"country":"US","launch_date":"2023-02-12","launch_site_code":"AFETR","launch_vehicle":null,"mission":null,"orbit_class":"UNKNOWN","rcs_meters":null,"size_class":null,"mass_kg":null,"dimensions":null,"purposes":["comms"],"wikipedia_slug":null,"has_3d_model":false,"image_url":null,"decayed_at":null,"tle_current":{"epoch":"2026-09-20T16:22:34.761792Z","epoch_age_seconds":84692,"freshness":"FRESH","line1":"1 55621U 23020BE  26263.68234678  .00000111  00000+0  13568-4 0  9998","line2":"2 55621  43.0025 332.7844 0001339 267.6645  92.4053 15.27577601198864","mean_motion":15.27577601,"eccentricity":0.0001339,"inclination_deg":43.0025,"raan_deg":332.7844,"arg_perigee_deg":267.6645,"mean_anomaly_deg":92.4053,"bstar":1.3568e-5,"rev_number":19886,"period_min":94.26689675584,"perigee_km":482.13756573796,"apogee_km":483.97499329822,"semimajor_km":6861.1932795181,"source":"CELESTRAK","updated_at":"2026-09-21T09:00:33.277686Z"}}}